Location: Kerberlivit
(48.2787°N, 4.5413°W)
Time: 10:34:16
(UTC+00:00)

Cosmos 1842 Rocket - Pass Details

Date: 18 February 2020
Orbit: 604 x 635 km, 82.5° (Epoch: 29 March)

Event Time Altitude Azimuth Distance (km) Brightness Sun altitude
Exits shadow 05:40:11 11° 207° (SSW) 1,956 5.8 -17.4°
Maximum altitude 05:44:24 51° 284° (WNW) 799 3.7 -16.7°
Drops below altitude 10° 05:48:48 10° 0° (N) 2,033 6.2 -16.0°
Sets 05:51:07 0° 6° (N) 2,946 7.1 -15.6°
